QPF
0.11 0.14 0.20 0.23 0.24 0.24 0.21 0.22 0.19 0.19 0.15 0.08 0.05 0.03 0.01 0.01 0.01 0.01 0.00 0.00 0.00 0.00 0.00 0.00 0.00 0.00 0.00 0.00 0.00 0.00 0.00 0.00 0.00 0.00 0.00 0.00 0.00 0.00 0.00 0.01 0.01 0.01 0.02
0.08 0.11 0.16 0.22 0.22 0.20 0.21 0.18 0.15 0.12 0.09 0.07 0.04 0.02 0.01 0.00 0.00 0.00 0.00 0.00 0.00 0.00 0.00 0.00 0.00 0.00 0.00 0.00 0.00 0.00 0.00 0.00 0.00 0.00 0.00 0.00 0.00 0.00 0.00 0.00 0.00 0.00 0.00
0.06 0.07 0.09 0.11 0.12 0.12 0.15 0.13 0.10 0.08 0.05 0.04 0.02 0.01 0.00 0.00 0.00 0.00 0.00 0.00 0.00 0.00 0.00 0.00 0.00 0.00 0.00 0.00 0.00 0.00 0.00 0.00 0.00 0.00 0.00 0.00 0.00 0.00 0.00 0.00 0.00 0.00 0.00
0.04 0.05 0.06 0.05 0.06 0.07 0.08 0.09 0.06 0.05 0.02 0.02 0.01 0.00 0.00 0.00 0.00 0.00 0.00 0.00 0.00 0.00 0.00 0.00 0.00 0.00 0.00 0.00 0.00 0.00 0.00 0.00 0.00 0.00 0.00 0.00 0.00 0.00 0.00 0.00 0.00 0.00 0.00
0.02 0.05 0.05 0.04 0.04 0.04 0.04 0.04 0.03 0.02 0.01 0.00 0.00 0.00 0.01 0.01 0.00 0.00 0.00 0.00 0.00 0.00 0.00 0.00 0.00 0.00 0.00 0.00 0.00 0.00 0.00 0.00 0.00 0.00 0.00 0.00 0.00 0.00 0.00 0.00 0.00 0.00 0.00
0.01 0.02 0.03 0.04 0.04 0.02 0.02 0.02 0.02 0.01 0.01 0.00 0.00 0.01 0.01 0.01 0.00 0.00 0.00 0.00 0.00 0.00 0.00 0.00 0.00 0.00 0.00 0.00 0.00 0.00 0.00 0.00 0.00 0.00 0.00 0.00 0.00 0.00 0.00 0.00 0.00 0.00 0.00
0.00 0.01 0.01 0.02 0.02 0.01 0.01 0.01 0.01 0.01 0.01 0.01 0.01 0.01 0.01 0.01 0.00 0.00 0.00 0.00 0.00 0.00 0.00 0.00 0.00 0.00 0.00 0.00 0.00 0.00 0.00 0.00 0.00 0.00 0.00 0.00 0.00 0.00 0.00 0.00 0.00 0.00 0.00
0.00 0.00 0.00 0.00 0.00 0.01 0.00 0.00 0.01 0.01 0.00 0.00 0.01 0.01 0.01 0.00 0.00 0.00 0.00 0.00 0.00 0.00 0.00 0.00 0.00 0.00 0.00 0.00 0.00 0.00 0.00 0.00 0.00 0.00 0.00 0.00 0.00 0.00 0.00 0.00 0.00 0.00 0.00
0.00 0.00 0.00 0.00 0.00 0.00 0.00 0.00 0.00 0.00 0.00 0.00 0.00 0.01 0.01 0.00 0.00 0.00 0.00 0.00 0.00 0.00 0.00 0.00 0.00 0.00 0.00 0.00 0.00 0.00 0.00 0.00 0.00 0.00 0.00 0.00 0.00 0.00 0.00 0.00 0.00 0.00 0.00
0.00 0.00 0.00 0.00 0.00 0.00 0.00 0.00 0.00 0.00 0.00 0.00 0.00 0.00 0.00 0.00 0.00 0.00 0.00 0.00 0.00 0.00 0.00 0.00 0.00 0.00 0.00 0.00 0.00 0.00 0.00 0.00 0.00 0.00 0.00 0.00 0.00 0.00 0.00 0.00 0.00 0.00 0.00
0.00 0.00 0.00 0.00 0.00 0.00 0.00 0.00 0.00 0.00 0.00 0.00 0.00 0.00 0.00 0.00 0.00 0.00 0.00 0.00 0.00 0.00 0.00 0.00 0.00 0.00 0.00 0.00 0.00 0.00 0.00 0.00 0.00 0.00 0.00 0.00 0.00 0.00 0.00 0.00 0.00 0.00 0.00
0.00 0.00 0.00 0.00 0.00 0.00 0.00 0.00 0.00 0.00 0.00 0.00 0.00 0.00 0.00 0.00 0.00 0.00 0.00 0.00 0.00 0.00 0.00 0.00 0.00 0.00 0.00 0.00 0.00 0.00 0.00 0.00 0.00 0.00 0.00 0.00 0.00 0.00 0.00 0.00 0.00 0.00 0.00
0.00 0.00 0.00 0.00 0.00 0.00 0.00 0.00 0.00 0.00 0.00 0.00 0.00 0.00 0.00 0.00 0.00 0.00 0.00 0.00 0.00 0.00 0.00 0.00 0.00 0.00 0.00 0.00 0.00 0.00 0.00 0.00 0.00 0.00 0.00 0.00 0.00 0.00 0.00 0.00 0.00 0.00 0.00
0.00 0.00 0.00 0.00 0.00 0.00 0.00 0.00 0.00 0.00 0.00 0.00 0.00 0.00 0.01 0.01 0.00 0.00 0.00 0.00 0.00 0.00 0.00 0.00 0.00 0.00 0.00 0.00 0.00 0.00 0.00 0.00 0.00 0.00 0.00 0.00 0.00 0.00 0.00 0.00 0.00 0.00 0.00
0.00 0.00 0.00 0.00 0.00 0.00 0.00 0.00 0.00 0.00 0.00 0.00 0.00 0.01 0.00 0.00 0.00 0.00 0.00 0.00 0.00 0.00 0.00 0.00 0.00 0.00 0.00 0.00 0.00 0.00 0.00 0.00 0.00 0.00 0.00 0.00 0.00 0.00 0.00 0.00 0.00 0.00 0.00
0.00 0.00 0.00 0.00 0.00 0.00 0.00 0.00 0.00 0.00 0.00 0.00 0.00 0.00 0.00 0.00 0.00 0.00 0.00 0.00 0.00 0.00 0.00 0.00 0.00 0.00 0.00 0.00 0.00 0.00 0.00 0.00 0.00 0.00 0.00 0.00 0.00 0.00 0.00 0.00 0.00 0.00 0.00
0.01 0.01 0.01 0.01 0.00 0.00 0.00 0.00 0.01 0.01 0.01 0.01 0.00 0.00 0.00 0.00 0.00 0.00 0.00 0.00 0.00 0.00 0.00 0.00 0.00 0.00 0.00 0.00 0.00 0.00 0.00 0.00 0.00 0.00 0.01 0.01 0.00 0.00 0.00 0.00 0.00 0.00 0.00
0.01 0.01 0.01 0.01 0.01 0.02 0.02 0.02 0.02 0.02 0.01 0.01 0.02 0.02 0.01 0.01 0.01 0.01 0.00 0.00 0.00 0.00 0.00 0.00 0.00 0.00 0.00 0.00 0.00 0.01 0.01 0.00 0.00 0.00 0.01 0.01 0.00 0.01 0.00 0.00 0.00 0.00 0.00
0.01 0.01 0.01 0.01 0.02 0.03 0.03 0.03 0.02 0.02 0.02 0.02 0.02 0.03 0.03 0.02 0.01 0.01 0.01 0.01 0.01 0.01 0.01 0.01 0.01 0.01 0.01 0.01 0.01 0.01 0.01 0.00 0.00 0.00 0.00 0.01 0.00 0.00 0.01 0.01 0.01 0.01 0.00
0.01 0.01 0.01 0.01 0.01 0.01 0.02 0.02 0.02 0.02 0.02 0.02 0.02 0.03 0.02 0.02 0.02 0.02 0.02 0.01 0.01 0.02 0.02 0.01 0.02 0.01 0.01 0.02 0.02 0.02 0.01 0.00 0.01 0.01 0.01 0.01 0.00 0.01 0.01 0.01 0.01 0.01 0.01
0.01 0.01 0.01 0.01 0.01 0.01 0.01 0.01 0.01 0.01 0.01 0.01 0.01 0.01 0.02 0.02 0.02 0.02 0.02 0.02 0.02 0.02 0.02 0.02 0.02 0.02 0.02 0.03 0.03 0.03 0.02 0.01 0.01 0.01 0.01 0.02 0.02 0.01 0.01 0.01 0.01 0.01 0.01
0.01 0.01 0.01 0.01 0.01 0.01 0.01 0.01 0.01 0.01 0.01 0.01 0.01 0.01 0.01 0.01 0.02 0.02 0.02 0.02 0.02 0.02 0.02 0.02 0.02 0.02 0.02 0.02 0.03 0.03 0.02 0.02 0.01 0.01 0.01 0.02 0.02 0.01 0.02 0.01 0.01 0.01 0.01
0.01 0.01 0.01 0.01 0.01 0.01 0.01 0.01 0.01 0.01 0.01 0.01 0.00 0.00 0.00 0.00 0.01 0.01 0.01 0.01 0.00 0.00 0.01 0.01 0.01 0.01 0.01 0.02 0.02 0.02 0.02 0.02 0.01 0.00 0.01 0.01 0.01 0.01 0.01 0.01 0.01 0.01 0.01
0.02 0.02 0.01 0.01 0.01 0.01 0.01 0.01 0.01 0.01 0.01 0.01 0.00 0.00 0.00 0.00 0.01 0.01 0.01 0.01 0.01 0.01 0.00 0.00 0.00 0.00 0.00 0.00 0.00 0.00 0.01 0.01 0.01 0.01 0.01 0.01 0.01 0.01 0.01 0.01 0.01 0.01 0.01
0.02 0.01 0.01 0.00 0.00 0.00 0.00 0.00 0.00 0.00 0.00 0.00 0.00 0.00 0.00 0.00 0.00 0.00 0.00 0.00 0.00 0.00 0.00 0.00 0.00 0.00 0.00 0.00 0.00 0.00 0.00 0.00 0.01 0.01 0.01 0.01 0.02 0.02 0.02 0.02 0.02 0.03 0.03
0.00 0.00 0.00 0.00 0.00 0.00 0.00 0.00 0.00 0.00 0.00 0.00 0.00 0.00 0.00 0.00 0.00 0.00 0.00 0.00 0.00 0.00 0.00 0.00 0.00 0.00 0.00 0.00 0.00 0.00 0.00 0.00 0.01 0.01 0.01 0.02 0.03 0.03 0.04 0.05 0.06 0.06 0.07
MSLP
1013.44 1013.93 1014.43 1014.91 1015.38 1015.83 1016.26 1016.69 1017.11 1017.51 1017.88 1018.21 1018.49 1018.72 1018.89 1019.02 1019.13 1019.22 1019.31 1019.40 1019.50 1019.59 1019.66 1019.71 1019.72 1019.71 1019.68 1019.65 1019.62 1019.60 1019.61 1019.62 1019.65 1019.65 1019.63 1019.55 1019.41 1019.21 1018.97 1018.70 1018.45 1018.24 1018.09
1013.76 1014.31 1014.83 1015.30 1015.72 1016.10 1016.46 1016.81 1017.17 1017.53 1017.88 1018.22 1018.51 1018.76 1018.95 1019.08 1019.19 1019.27 1019.36 1019.45 1019.57 1019.69 1019.81 1019.91 1019.98 1020.01 1020.01 1019.98 1019.93 1019.88 1019.84 1019.82 1019.81 1019.80 1019.77 1019.71 1019.60 1019.44 1019.24 1019.00 1018.75 1018.53 1018.36
1013.97 1014.59 1015.13 1015.59 1015.96 1016.28 1016.56 1016.84 1017.14 1017.47 1017.81 1018.15 1018.46 1018.72 1018.93 1019.07 1019.18 1019.25 1019.34 1019.43 1019.55 1019.70 1019.86 1020.01 1020.14 1020.22 1020.25 1020.24 1020.20 1020.13 1020.07 1020.01 1019.98 1019.95 1019.92 1019.88 1019.80 1019.68 1019.52 1019.31 1019.09 1018.87 1018.69
1014.03 1014.70 1015.27 1015.73 1016.08 1016.34 1016.56 1016.79 1017.04 1017.34 1017.67 1018.02 1018.34 1018.62 1018.84 1019.00 1019.10 1019.18 1019.25 1019.34 1019.47 1019.63 1019.82 1020.02 1020.20 1020.34 1020.42 1020.44 1020.41 1020.35 1020.28 1020.21 1020.15 1020.11 1020.08 1020.05 1020.00 1019.92 1019.79 1019.62 1019.43 1019.22 1019.03
1013.92 1014.63 1015.23 1015.69 1016.03 1016.27 1016.46 1016.65 1016.87 1017.15 1017.47 1017.82 1018.16 1018.46 1018.70 1018.86 1018.96 1019.03 1019.10 1019.18 1019.31 1019.49 1019.71 1019.95 1020.18 1020.37 1020.50 1020.56 1020.57 1020.53 1020.46 1020.38 1020.32 1020.27 1020.24 1020.21 1020.18 1020.12 1020.02 1019.88 1019.71 1019.53 1019.34
1013.64 1014.38 1015.00 1015.47 1015.81 1016.04 1016.22 1016.39 1016.61 1016.88 1017.20 1017.56 1017.91 1018.22 1018.46 1018.64 1018.75 1018.82 1018.88 1018.97 1019.10 1019.30 1019.54 1019.81 1020.07 1020.31 1020.49 1020.60 1020.64 1020.63 1020.58 1020.51 1020.45 1020.40 1020.36 1020.34 1020.31 1020.27 1020.19 1020.07 1019.92 1019.75 1019.56
1013.20 1013.94 1014.56 1015.05 1015.40 1015.64 1015.84 1016.02 1016.24 1016.52 1016.85 1017.21 1017.56 1017.88 1018.14 1018.32 1018.44 1018.52 1018.59 1018.69 1018.83 1019.04 1019.30 1019.59 1019.89 1020.16 1020.38 1020.54 1020.62 1020.63 1020.61 1020.56 1020.50 1020.46 1020.43 1020.40 1020.38 1020.34 1020.27 1020.17 1020.03 1019.86 1019.68
1012.62 1013.33 1013.94 1014.44 1014.81 1015.08 1015.31 1015.52 1015.76 1016.05 1016.38 1016.74 1017.10 1017.43 1017.69 1017.89 1018.03 1018.13 1018.22 1018.34 1018.50 1018.73 1019.00 1019.32 1019.64 1019.93 1020.18 1020.36 1020.48 1020.52 1020.53 1020.50 1020.46 1020.43 1020.40 1020.38 1020.36 1020.32 1020.26 1020.16 1020.03 1019.87 1019.69
1011.94 1012.59 1013.17 1013.66 1014.06 1014.37 1014.63 1014.88 1015.15 1015.46 1015.80 1016.17 1016.53 1016.85 1017.13 1017.34 1017.51 1017.64 1017.77 1017.92 1018.11 1018.36 1018.66 1018.98 1019.32 1019.62 1019.89 1020.09 1020.22 1020.30 1020.32 1020.32 1020.31 1020.29 1020.28 1020.27 1020.26 1020.23 1020.17 1020.08 1019.95 1019.79 1019.62
1011.19 1011.76 1012.31 1012.79 1013.19 1013.54 1013.84 1014.13 1014.44 1014.77 1015.12 1015.48 1015.84 1016.17 1016.45 1016.69 1016.89 1017.06 1017.24 1017.44 1017.67 1017.95 1018.26 1018.60 1018.93 1019.25 1019.51 1019.72 1019.87 1019.96 1020.01 1020.03 1020.04 1020.05 1020.06 1020.07 1020.07 1020.05 1020.00 1019.92 1019.80 1019.65 1019.47
1010.46 1010.94 1011.43 1011.88 1012.29 1012.66 1013.00 1013.33 1013.66 1014.01 1014.37 1014.73 1015.08 1015.41 1015.70 1015.96 1016.20 1016.42 1016.65 1016.90 1017.18 1017.49 1017.82 1018.17 1018.50 1018.81 1019.06 1019.27 1019.42 1019.53 1019.59 1019.64 1019.68 1019.72 1019.75 1019.78 1019.80 1019.80 1019.77 1019.70 1019.60 1019.46 1019.29
1009.84 1010.23 1010.64 1011.05 1011.45 1011.83 1012.19 1012.54 1012.90 1013.25 1013.61 1013.96 1014.30 1014.63 1014.93 1015.21 1015.48 1015.75 1016.03 1016.33 1016.65 1017.00 1017.35 1017.70 1018.03 1018.32 1018.57 1018.76 1018.91 1019.02 1019.10 1019.17 1019.23 1019.29 1019.35 1019.41 1019.45 1019.47 1019.47 1019.42 1019.34 1019.23 1019.08
1009.43 1009.72 1010.06 1010.41 1010.78 1011.15 1011.51 1011.87 1012.22 1012.57 1012.92 1013.25 1013.58 1013.89 1014.19 1014.49 1014.78 1015.09 1015.42 1015.76 1016.12 1016.49 1016.85 1017.20 1017.52 1017.79 1018.02 1018.20 1018.34 1018.44 1018.53 1018.62 1018.70 1018.78 1018.86 1018.94 1019.01 1019.06 1019.08 1019.07 1019.02 1018.94 1018.83
1009.31 1009.51 1009.76 1010.05 1010.37 1010.70 1011.04 1011.38 1011.72 1012.05 1012.38 1012.69 1012.99 1013.28 1013.57 1013.87 1014.18 1014.50 1014.85 1015.22 1015.60 1015.98 1016.34 1016.68 1016.97 1017.22 1017.43 1017.59 1017.71 1017.81 1017.90 1017.99 1018.08 1018.18 1018.28 1018.37 1018.46 1018.53 1018.58 1018.61 1018.60 1018.56 1018.50
1009.53 1009.65 1009.81 1010.03 1010.27 1010.55 1010.85 1011.15 1011.46 1011.76 1012.05 1012.33 1012.60 1012.86 1013.13 1013.41 1013.71 1014.04 1014.38 1014.75 1015.12 1015.48 1015.83 1016.13 1016.40 1016.62 1016.80 1016.93 1017.04 1017.13 1017.21 1017.29 1017.39 1017.48 1017.59 1017.69 1017.79 1017.88 1017.95 1018.01 1018.05 1018.06 1018.05
1010.08 1010.13 1010.21 1010.34 1010.52 1010.73 1010.97 1011.22 1011.48 1011.74 1011.99 1012.22 1012.45 1012.68 1012.91 1013.16 1013.43 1013.73 1014.05 1014.38 1014.71 1015.04 1015.34 1015.60 1015.83 1016.01 1016.15 1016.25 1016.34 1016.41 1016.48 1016.55 1016.62 1016.71 1016.80 1016.90 1017.00 1017.09 1017.19 1017.27 1017.35 1017.41 1017.45
1010.88 1010.88 1010.91 1010.96 1011.06 1011.20 1011.37 1011.57 1011.78 1011.99 1012.19 1012.39 1012.58 1012.76 1012.95 1013.16 1013.38 1013.62 1013.88 1014.15 1014.42 1014.67 1014.91 1015.11 1015.28 1015.41 1015.51 1015.59 1015.64 1015.69 1015.73 1015.78 1015.83 1015.89 1015.96 1016.03 1016.11 1016.20 1016.30 1016.40 1016.50 1016.61 1016.70
1011.83 1011.81 1011.79 1011.79 1011.82 1011.90 1012.01 1012.15 1012.31 1012.48 1012.65 1012.81 1012.96 1013.10 1013.24 1013.39 1013.55 1013.72 1013.90 1014.08 1014.26 1014.43 1014.58 1014.71 1014.81 1014.89 1014.94 1014.98 1015.00 1015.02 1015.04 1015.05 1015.06 1015.08 1015.11 1015.14 1015.18 1015.25 1015.33 1015.43 1015.54 1015.67 1015.79
1012.79 1012.76 1012.72 1012.69 1012.69 1012.72 1012.79 1012.89 1013.02 1013.15 1013.29 1013.42 1013.54 1013.64 1013.74 1013.83 1013.92 1014.00 1014.09 1014.18 1014.26 1014.33 1014.39 1014.43 1014.47 1014.49 1014.50 1014.50 1014.49 1014.47 1014.45 1014.42 1014.39 1014.35 1014.32 1014.29 1014.28 1014.29 1014.34 1014.41 1014.52 1014.64 1014.78
1013.61 1013.62 1013.59 1013.56 1013.55 1013.56 1013.61 1013.69 1013.79 1013.91 1014.03 1014.14 1014.23 1014.31 1014.36 1014.40 1014.42 1014.42 1014.42 1014.40 1014.38 1014.36 1014.33 1014.31 1014.28 1014.25 1014.22 1014.19 1014.15 1014.10 1014.03 1013.95 1013.86 1013.75 1013.64 1013.54 1013.45 1013.39 1013.38 1013.40 1013.47 1013.57 1013.69
1014.23 1014.29 1014.31 1014.30 1014.30 1014.32 1014.37 1014.45 1014.55 1014.66 1014.77 1014.87 1014.95 1015.00 1015.02 1015.00 1014.96 1014.90 1014.81 1014.71 1014.61 1014.51 1014.41 1014.32 1014.25 1014.18 1014.12 1014.07 1014.00 1013.92 1013.81 1013.67 1013.50 1013.31 1013.11 1012.91 1012.72 1012.58 1012.47 1012.43 1012.43 1012.48 1012.56
1014.62 1014.75 1014.82 1014.86 1014.90 1014.94 1015.01 1015.10 1015.20 1015.32 1015.43 1015.52 1015.58 1015.61 1015.61 1015.55 1015.46 1015.34 1015.20 1015.03 1014.87 1014.71 1014.57 1014.45 1014.35 1014.26 1014.19 1014.12 1014.03 1013.91 1013.75 1013.55 1013.30 1013.01 1012.70 1012.39 1012.09 1011.83 1011.62 1011.48 1011.40 1011.38 1011.40
1014.81 1015.00 1015.14 1015.23 1015.32 1015.40 1015.49 1015.59 1015.71 1015.82 1015.92 1016.01 1016.06 1016.07 1016.04 1015.96 1015.84 1015.68 1015.49 1015.30 1015.10 1014.92 1014.75 1014.62 1014.52 1014.43 1014.36 1014.28 1014.17 1014.02 1013.80 1013.53 1013.19 1012.79 1012.36 1011.92 1011.49 1011.11 1010.78 1010.53 1010.36 1010.25 1010.20
1014.87 1015.12 1015.31 1015.45 1015.57 1015.69 1015.80 1015.91 1016.03 1016.13 1016.22 1016.29 1016.32 1016.32 1016.26 1016.16 1016.02 1015.84 1015.64 1015.43 1015.23 1015.05 1014.90 1014.78 1014.69 1014.62 1014.55 1014.46 1014.33 1014.14 1013.87 1013.51 1013.08 1012.57 1012.01 1011.43 1010.87 1010.35 1009.90 1009.54 1009.26 1009.07 1008.95
1014.88 1015.16 1015.38 1015.56 1015.71 1015.84 1015.96 1016.07 1016.17 1016.26 1016.33 1016.37 1016.37 1016.34 1016.27 1016.15 1016.00 1015.82 1015.62 1015.42 1015.24 1015.08 1014.95 1014.85 1014.79 1014.73 1014.67 1014.57 1014.42 1014.18 1013.85 1013.41 1012.87 1012.24 1011.56 1010.85 1010.15 1009.50 1008.93 1008.46 1008.09 1007.83 1007.65
1014.92 1015.20 1015.42 1015.61 1015.77 1015.90 1016.01 1016.10 1016.18 1016.23 1016.26 1016.26 1016.24 1016.17 1016.08 1015.95 1015.80 1015.63 1015.45 1015.27 1015.11 1014.98 1014.88 1014.81 1014.76 1014.71 1014.65 1014.53 1014.34 1014.05 1013.65 1013.12 1012.48 1011.75 1010.94 1010.11 1009.30 1008.53 1007.86 1007.29 1006.85 1006.53 1006.31
Thickness
5728 5726 5725 5725 5723 5721 5721 5721 5722 5721 5720 5720 5719 5718 5718 5718 5717 5716 5712 5712 5712 5711 5711 5714 5712 5713 5714 5712 5713 5713 5712 5713 5713 5714 5714 5715 5716 5715 5713 5714 5715 5716 5715
5725 5724 5722 5721 5720 5719 5719 5719 5720 5720 5719 5719 5720 5719 5719 5718 5718 5716 5711 5711 5710 5710 5711 5710 5713 5711 5710 5709 5709 5709 5712 5712 5711 5711 5711 5710 5710 5709 5713 5712 5711 5712 5713
5727 5724 5722 5721 5720 5719 5719 5721 5720 5719 5720 5719 5720 5718 5717 5716 5716 5714 5713 5711 5709 5709 5708 5709 5710 5709 5711 5710 5707 5707 5707 5709 5709 5709 5709 5709 5708 5709 5709 5706 5707 5707 5708
5734 5729 5726 5723 5722 5722 5722 5721 5719 5719 5719 5719 5721 5720 5718 5718 5718 5716 5715 5711 5709 5709 5708 5708 5707 5708 5709 5706 5708 5706 5707 5705 5708 5707 5705 5705 5705 5705 5704 5705 5705 5704 5703
5740 5734 5730 5728 5727 5726 5725 5723 5721 5720 5720 5721 5721 5719 5720 5721 5721 5717 5714 5712 5711 5709 5709 5708 5707 5706 5707 5705 5704 5703 5704 5705 5705 5705 5705 5703 5702 5703 5701 5700 5700 5702 5702
5744 5739 5735 5732 5729 5729 5727 5726 5723 5721 5721 5721 5721 5720 5720 5719 5718 5715 5715 5713 5714 5712 5710 5708 5707 5706 5706 5704 5703 5702 5701 5701 5699 5701 5702 5701 5701 5700 5699 5697 5696 5697 5699
5749 5743 5739 5735 5733 5731 5730 5729 5726 5724 5724 5723 5722 5722 5721 5719 5717 5717 5717 5716 5717 5716 5712 5711 5707 5706 5704 5702 5701 5700 5700 5699 5696 5696 5698 5699 5698 5697 5696 5694 5695 5693 5696
5755 5749 5745 5741 5738 5736 5735 5733 5730 5728 5728 5726 5724 5724 5722 5723 5724 5720 5721 5719 5719 5719 5716 5711 5708 5705 5703 5702 5700 5701 5699 5696 5694 5694 5692 5693 5695 5694 5692 5691 5689 5689 5692
5760 5756 5752 5749 5745 5743 5741 5739 5735 5733 5732 5730 5727 5725 5724 5725 5725 5723 5720 5721 5719 5718 5714 5711 5708 5705 5703 5701 5699 5700 5696 5695 5693 5694 5691 5689 5692 5689 5689 5688 5686 5683 5682
5764 5762 5758 5755 5753 5750 5747 5744 5741 5737 5736 5733 5731 5730 5728 5726 5725 5723 5722 5721 5719 5717 5714 5711 5708 5705 5703 5700 5697 5697 5695 5692 5690 5689 5687 5685 5688 5688 5685 5684 5683 5681 5678
5769 5767 5763 5761 5758 5755 5752 5747 5744 5741 5738 5737 5734 5732 5731 5729 5726 5724 5722 5720 5718 5715 5712 5710 5707 5705 5702 5699 5696 5695 5694 5690 5689 5687 5685 5683 5681 5682 5682 5680 5678 5677 5675
5773 5771 5767 5764 5760 5757 5755 5750 5748 5744 5742 5740 5736 5733 5731 5729 5727 5725 5723 5720 5717 5715 5712 5709 5706 5703 5701 5698 5695 5692 5691 5689 5687 5685 5683 5681 5680 5677 5676 5675 5675 5673 5671
5771 5770 5767 5764 5761 5759 5757 5754 5751 5748 5746 5742 5738 5735 5732 5730 5728 5727 5724 5720 5717 5714 5711 5708 5705 5702 5700 5697 5694 5691 5689 5687 5686 5684 5681 5679 5677 5673 5673 5670 5670 5670 5669
5767 5767 5764 5762 5761 5759 5756 5754 5752 5751 5748 5744 5739 5736 5734 5732 5729 5726 5723 5720 5716 5712 5709 5707 5704 5701 5698 5696 5693 5690 5688 5685 5684 5682 5680 5678 5675 5672 5669 5667 5664 5663 5662
5762 5761 5760 5758 5756 5754 5752 5751 5749 5748 5746 5742 5738 5736 5733 5731 5727 5724 5721 5718 5714 5711 5708 5705 5702 5699 5697 5695 5692 5689 5686 5683 5681 5679 5677 5676 5673 5671 5666 5665 5664 5660 5657
5756 5756 5754 5752 5749 5748 5746 5746 5744 5743 5740 5737 5735 5734 5731 5727 5724 5721 5718 5714 5711 5708 5705 5702 5699 5697 5696 5694 5688 5684 5682 5680 5678 5676 5675 5673 5670 5666 5660 5658 5655 5653 5651
5748 5747 5746 5744 5743 5742 5741 5738 5737 5736 5732 5729 5728 5726 5724 5721 5719 5717 5713 5710 5706 5703 5700 5698 5696 5694 5693 5688 5682 5677 5675 5675 5675 5674 5671 5670 5672 5665 5662 5656 5649 5646 5643
5735 5735 5735 5734 5734 5733 5732 5730 5728 5725 5722 5719 5717 5716 5714 5712 5710 5707 5705 5702 5700 5697 5694 5692 5691 5689 5688 5682 5676 5671 5667 5669 5671 5670 5668 5665 5664 5662 5658 5654 5652 5649 5646
5723 5722 5723 5722 5720 5719 5718 5717 5715 5711 5709 5707 5704 5703 5702 5699 5697 5695 5693 5691 5689 5687 5686 5684 5682 5680 5679 5673 5667 5660 5661 5662 5664 5664 5664 5662 5660 5657 5649 5644 5644 5644 5645
5710 5709 5708 5707 5704 5704 5703 5701 5699 5697 5695 5693 5691 5690 5688 5687 5685 5683 5682 5681 5678 5677 5676 5675 5673 5671 5669 5665 5658 5650 5652 5655 5658 5659 5659 5655 5653 5650 5643 5637 5636 5636 5638
5696 5696 5694 5691 5688 5688 5686 5684 5683 5681 5680 5679 5677 5675 5674 5673 5672 5671 5669 5668 5667 5665 5663 5662 5661 5660 5657 5653 5647 5641 5640 5643 5646 5648 5649 5650 5646 5639 5634 5629 5629 5630 5629
5682 5681 5679 5675 5673 5672 5671 5669 5666 5666 5665 5664 5662 5661 5660 5661 5660 5658 5657 5655 5653 5654 5652 5650 5649 5649 5646 5641 5637 5630 5626 5625 5627 5631 5634 5635 5630 5625 5620 5618 5618 5616 5611
5669 5668 5664 5660 5659 5659 5658 5655 5652 5653 5652 5650 5649 5648 5648 5646 5646 5645 5645 5644 5642 5641 5640 5638 5636 5635 5633 5629 5623 5619 5614 5611 5610 5615 5616 5614 5610 5607 5607 5606 5604 5600 5599
5658 5655 5652 5649 5647 5646 5645 5643 5643 5641 5640 5638 5637 5636 5635 5635 5633 5631 5632 5630 5627 5625 5622 5620 5619 5618 5616 5613 5610 5605 5602 5600 5599 5602 5601 5597 5596 5594 5594 5595 5594 5592 5593
5648 5645 5641 5639 5638 5637 5635 5633 5631 5630 5628 5627 5626 5626 5626 5623 5618 5619 5615 5613 5609 5604 5598 5599 5597 5596 5595 5589 5577 5574 5578 5577 5577 5574 5577 5582 5586 5588 5589 5589 5589 5588 5586
5638 5635 5633 5631 5629 5627 5625 5622 5620 5618 5616 5616 5615 5615 5614 5611 5609 5606 5605 5600 5594 5588 5582 5577 5572 5573 5568 5562 5559 5555 5553 5551 5549 5549 5561 5567 5571 5574 5576 5576 5577 5577 5576